{"data":{"norad_id":59249,"intl_designator":"2024-049U","name":"STARLINK-31426","alt_names":[],"object_type":"PAYLOAD","status":"ACTIVE","operator":null,"country":"US","launch_date":"2024-03-16","launch_site_code":"AFETR","launch_vehicle":null,"mission":null,"orbit_class":"UNKNOWN","rcs_meters":null,"size_class":null,"mass_kg":null,"dimensions":null,"purposes":["comms"],"wikipedia_slug":null,"has_3d_model":false,"image_url":null,"decayed_at":null,"tle_current":{"epoch":"2026-05-25T04:35:30.734880Z","epoch_age_seconds":51665,"freshness":"FRESH","line1":"1 59249U 24049U   26145.19132795  .00000431  00000+0  25170-4 0  9999","line2":"2 59249  43.0047  71.6881 0001351 259.1556 100.9143 15.27583112124092","mean_motion":15.27583112,"eccentricity":0.0001351,"inclination_deg":43.0047,"raan_deg":71.6881,"arg_perigee_deg":259.1556,"mean_anomaly_deg":100.9143,"bstar":2.517e-5,"rev_number":12409,"period_min":94.266556672957,"perigee_km":482.11283262528,"apogee_km":483.96672259059,"semimajor_km":6861.1767776079,"source":"CELESTRAK","updated_at":"2026-05-25T13:38:18.873020Z"}}}